CZ-4 DEB, 26122

Orbit data source: Space-Track

CZ-4 DEB, 26122 is space debris in SSO originally from a launch on Thu, 14 Oct 1999 UTC launched from the Taiyaun Space Center, China (TSC). Debris objects in space refer to the collection of defunct objects orbiting the Earth. Examples of debris include non-operational satellites, rocket bodies, and fragments generated from explosions, collisions, or faulty payload assembly.

Loading next visibility...
Identifier
26122, 1999-057J
Orbit
SSO
Country
Flag of CNCN / PRC
Related business
Manufacturer
Unknown
Mission
Spacecraft
Bus & Motor
Unknown
Mass
Unknown
Launch date (UTC)
1999-10-14 (26 years ago)
Launch vehicle
Unknown
Launch site
Taiyaun Space Center, China (TSC)
Object type
Payload
Rocket body
Debris
Shape & HBR
Unknown shape, 0.2 m
Radar Cross Section
Small (<0.1 m²)

Expand to show TLE details & history
Last TLE update: 8 hours ago

TLE from 8 hours ago
0 CZ-4 DEB
1 26122U 99057J   25349.90860483  .00001513  00000-0  11946-2 0  9997
2 26122  98.9170 128.8592 0525867 162.2560 319.1772 13.42603958255383
Epoch: 2025-12-15T21:48Z
TLE epoch observation values (Epoch: 2025-12-15T21:48:23.457Z)
Latitude
61.49045°
Longitude
-86.34163°
Altitude
821.81 km
Speed
7.59 km/s
True Right ascension
21h 42m 13s
True Declination
61° 20' 50"
Sunlit
Object was in daylight at epoch
Visualization orbit readout
Latitude
Unknown
Longitude
Unknown
Altitude
Unknown
Speed
Unknown
Apparent Right ascension
Unknown
Apparent Declination
Unknown
Sunlit
N/A
Visualization observer readout
Local Sidereal Time
04:21:36
Azimuth
Unknown
Elevation
Unknown
Doppler factor
Unknown
Orbital elements
Apogee altitude
1,489.942 km
Perigee altitude
703.771 km
Semi-major axis
7,474.993 km
Eccentricity
0.05259
Inclination
98.917°
RAAN
128.8592°
Arg. of periapsis
162.256°
True anomaly
315.03576°
Mean anomaly
319.1772°
Eccentric anomaly
317.12724°
Mean motion
3.35836 °/min
Orbital period
107.2 mins
BSTAR
0.0011946
Loading maneuver chart data...
Computing Atmospheric mass density...
Loading historical data...
Loading historical data...
Loading historical data...
Loading historical data...
Loading historical data...
Loading historical data...
Loading historical data...

Documentation

Showing up to 5 results
|